| time (UTC) | temp C | wind direction | speed KPH | gust KPH | rain 1hr cm | rain 24hr cm | rain mn cm | humidity % | barometer mb |
| 20260505031509 | 9 | 210 | 32.2 | 51.5 | 0.00 | 0.64 | 0.00 | 72 | 1005.5 |
| 20260505030005 | 9 | 217 | 33.8 | 54.7 | 0.00 | 0.64 | 0.64 | 71 | 1005.3 |
| 20260505024501 | 10 | 215 | 37.0 | 61.2 | 0.00 | 0.64 | 0.64 | 70 | 1005.0 |
| 20260505023109 | 10 | 215 | 37.0 | 59.5 | 0.00 | 0.64 | 0.64 | 69 | 1004.9 |
| 20260505021601 | 10 | 213 | 35.4 | 56.3 | 0.00 | 0.64 | 0.64 | 67 | 1004.8 |
| 20260505020059 | 10 | 213 | 41.8 | 62.8 | 0.00 | 0.64 | 0.64 | 66 | 1004.6 |
| 20260505014558 | 10 | 202 | 37.0 | 56.3 | 0.00 | 0.64 | 0.64 | 66 | 1004.6 |
| 20260505013054 | 10 | 227 | 40.2 | 59.5 | 0.00 | 0.64 | 0.64 | 64 | 1004.4 |
| 20260505011555 | 10 | 212 | 33.8 | 57.9 | 0.00 | 0.64 | 0.64 | 65 | 1004.1 |
| 20260505010101 | 11 | 210 | 27.4 | 41.8 | 0.00 | 0.64 | 0.64 | 63 | 1003.9 |
| 20260505004552 | 11 | 210 | 35.4 | 56.3 | 0.00 | 0.64 | 0.64 | 62 | 1004.0 |
| 20260505003049 | 11 | 207 | 33.8 | 45.1 | 0.00 | 0.64 | 0.64 | 61 | 1003.8 |
| 20260505001548 | 11 | 236 | 29.0 | 43.5 | 0.00 | 0.64 | 0.64 | 62 | 1003.5 |
| 20260505000047 | 11 | 190 | 27.4 | 51.5 | 0.00 | 0.64 | 0.64 | 60 | 1003.2 |
| 20260504234544 | 10 | 195 | 33.8 | 49.9 | 0.00 | 0.71 | 0.64 | 60 | 1002.8 |
| 20260504233044 | 10 | 214 | 24.1 | 53.1 | 0.00 | 0.71 | 0.64 | 56 | 1002.7 |
| 20260504231542 | 10 | 213 | 43.5 | 59.5 | 0.00 | 0.71 | 0.64 | 52 | 1002.9 |
| 20260504230039 | 11 | 236 | 37.0 | 51.5 | 0.00 | 0.71 | 0.64 | 50 | 1002.5 |
| 20260504224537 | 10 | 196 | 24.1 | 33.8 | 0.00 | 0.79 | 0.64 | 55 | 1002.4 |
| 20260504223036 | 10 | 231 | 29.0 | 48.3 | 0.00 | 0.79 | 0.64 | 53 | 1002.1 |
| 20260504221537 | 11 | 219 | 29.0 | 48.3 | 0.00 | 0.79 | 0.64 | 51 | 1002.1 |
| 20260504220034 | 11 | 208 | 29.0 | 45.1 | 0.00 | 0.79 | 0.64 | 51 | 1002.1 |
| 20260504214539 | 11 | 222 | 32.2 | 49.9 | 0.00 | 0.89 | 0.64 | 50 | 1002.0 |
| 20260504213031 | 11 | 212 | 30.6 | 43.5 | 0.00 | 0.89 | 0.64 | 51 | 1001.9 |
| 20260504211528 | 11 | 246 | 33.8 | 54.7 | 0.00 | 0.89 | 0.64 | 51 | 1001.8 |
| 20260504210025 | 10 | 212 | 30.6 | 53.1 | 0.00 | 0.89 | 0.64 | 53 | 1001.5 |
| 20260504204522 | 10 | 231 | 35.4 | 53.1 | 0.00 | 0.99 | 0.64 | 53 | 1001.4 |
| 20260504203019 | 10 | 219 | 32.2 | 49.9 | 0.00 | 0.99 | 0.64 | 57 | 1001.4 |
| 20260504201518 | 10 | 206 | 33.8 | 53.1 | 0.00 | 0.99 | 0.64 | 58 | 1001.1 |
| 20260504200032 | 10 | 241 | 35.4 | 56.3 | 0.00 | 0.99 | 0.64 | 60 | 1001.0 |
| 20260504194520 | 10 | 223 | 35.4 | 66.0 | 0.00 | 1.14 | 0.64 | 59 | 1000.5 |
| 20260504193013 | 10 | 226 | 38.6 | 61.2 | 0.00 | 1.14 | 0.64 | 62 | 1000.3 |
| 20260504191520 | 9 | 220 | 40.2 | 62.8 | 0.00 | 1.14 | 0.64 | 65 | 1000.3 |
| 20260504190011 | 8 | 211 | 41.8 | 56.3 | 0.00 | 1.14 | 0.64 | 68 | 1000.1 |
| 20260504184512 | 8 | 223 | 37.0 | 54.7 | 0.00 | 1.22 | 0.64 | 72 | 999.9 |
| 20260504183111 | 8 | 241 | 40.2 | 59.5 | 0.00 | 1.22 | 0.64 | 72 | 999.8 |
| 20260504181501 | 8 | 241 | 41.8 | 64.4 | 0.00 | 1.22 | 0.64 | 73 | 999.5 |
| 20260504180059 | 8 | 225 | 49.9 | 67.6 | 0.00 | 1.22 | 0.64 | 74 | 999.4 |
| 20260504174606 | 8 | 236 | 49.9 | 69.2 | 0.00 | 1.22 | 0.64 | 76 | 999.2 |
| 20260504173057 | 7 | 241 | 41.8 | 66.0 | 0.00 | 1.22 | 0.64 | 79 | 999.0 |
| 20260504171550 | 7 | 223 | 46.7 | 62.8 | 0.00 | 1.22 | 0.64 | 80 | 998.8 |
| 20260504081513 | 2 | 214 | 38.6 | 61.2 | 0.00 | 0.94 | 0.36 | 94 | 980.0 |
| 20260504050012 | 3 | 318 | 14.5 | 20.9 | 0.05 | 0.61 | 0.05 | 91 | 975.4 |
| 20260504044517 | 3 | 340 | 12.9 | 17.7 | 0.03 | 0.61 | 0.03 | 90 | 975.7 |
| 20260504043102 | 4 | 350 | 9.7 | 14.5 | 0.00 | 0.58 | 0.00 | 89 | 975.7 |
| 20260504041554 | 4 | 2 | 9.7 | 14.5 | 0.00 | 0.58 | 0.00 | 88 | 975.9 |
| 20260504040100 | 5 | 40 | 8.0 | 14.5 | 0.00 | 0.58 | 0.00 | 87 | 976.1 |
| 20260504034555 | 5 | 58 | 6.4 | 11.3 | 0.00 | 0.58 | 0.00 | 87 | 976.4 |
| 20260504033031 | 5 | 49 | 11.3 | 22.5 | 0.00 | 0.58 | 0.00 | 87 | 976.6 |